Location: Bijele Vode
(45.2833°N, 16.2000°E)
Time: 01:05:58
(UTC+00:00)

CZ-2C R/B - Pass Details

Date: 18 September 2020
Orbit: 391 x 588 km, 35.0° (Epoch: 26 October)

Event Time Altitude Azimuth Distance (km) Brightness Sun altitude
Rises 19:00:42 0° 243° (WSW) 2,414 5.1 -21.3°
Reaches altitude 10° 19:03:36 10° 218° (SW) 1,505 3.7 -21.8°
Enters shadow 19:03:59 11° 213° (SSW) 1,420 3.5 -21.9°
